Theta_e
311 311 310 311 311 310 310 308 308 308 307 305 303 305 307 307 301 312 314 319 316 314 309 310 308 308 309 306 306 309 307 306 308 306 308 307 309 308 306 308 305 306 307 305 306 307 305 304 304 306 304 306 306 308 308 308 307 312 308 307 310 327 318 308 304 309 307 308 308 309 306 308 307 307 306 306 305 306 306 306 311 303 301 300 299 298 303
312 311 310 311 310 309 309 308 308 308 307 305 304 305 306 305 305 311 317 318 313 313 305 304 305 305 308 305 305 305 304 305 304 304 305 306 308 306 307 307 307 307 306 307 306 308 304 305 306 307 307 307 310 306 310 308 308 310 310 309 318 306 309 312 302 301 303 305 309 308 309 309 308 308 306 307 307 306 306 307 309 303 304 305 300 295 303
312 311 311 310 310 309 308 308 309 309 308 307 304 306 305 304 306 305 311 320 312 307 303 304 303 304 304 302 303 304 305 304 305 305 304 308 310 307 308 307 307 306 306 307 307 308 306 306 306 308 307 310 313 311 312 311 311 312 318 333 316 314 313 309 300 296 294 294 295 298 303 305 307 308 305 307 307 305 307 303 305 298 304 303 300 301 307
311 311 311 310 310 309 308 308 309 308 308 306 305 304 307 307 304 307 311 313 314 312 312 310 304 305 304 303 303 302 303 308 308 306 306 305 307 307 308 308 308 307 306 307 307 306 308 306 307 309 308 309 311 311 314 312 314 328 332 320 317 313 311 315 310 304 302 304 309 310 311 308 305 305 305 304 306 308 312 312 305 300 300 301 301 309 309
311 311 310 310 310 308 308 308 309 308 307 307 307 306 307 308 304 305 304 310 310 307 310 309 309 305 305 301 303 304 304 305 308 306 305 308 306 307 306 308 307 306 306 306 306 306 306 309 309 307 308 310 311 309 314 329 334 333 323 323 318 317 310 310 311 315 312 311 308 305 314 307 308 306 304 305 305 306 307 305 304 311 302 298 302 305 305
311 310 310 310 309 308 308 309 309 307 307 306 306 309 309 303 306 307 307 301 303 305 306 308 307 307 308 304 306 303 304 305 304 308 308 308 308 306 307 307 305 305 305 309 306 308 310 311 306 307 306 310 311 312 311 315 317 328 313 316 319 316 307 306 306 305 305 303 306 308 308 309 309 309 306 304 307 306 306 310 309 309 304 302 310 305 307
311 311 310 310 309 308 309 309 308 307 306 307 308 307 307 308 307 306 309 305 306 306 308 308 306 304 309 305 304 302 303 303 304 304 306 307 307 308 305 305 308 307 307 307 311 313 305 304 308 311 310 310 312 310 311 312 312 314 313 314 318 318 308 308 307 306 304 304 307 306 308 306 307 307 308 307 305 306 307 309 308 307 309 311 311 310 309
311 312 311 311 309 309 309 308 308 307 305 308 306 301 302 301 302 303 306 307 307 309 307 305 305 303 305 304 302 302 302 302 303 305 304 304 306 310 307 307 308 308 307 311 311 308 307 309 310 312 314 308 313 314 316 311 312 313 313 312 314 315 307 310 308 308 305 305 307 307 307 308 305 304 305 304 305 305 305 306 306 308 307 308 308 309 309
311 311 312 311 310 309 309 309 308 307 306 305 303 301 302 302 305 304 302 304 307 309 305 305 303 303 303 303 302 303 302 302 303 303 307 305 305 306 305 307 307 308 308 309 306 306 308 309 309 309 310 309 316 311 313 312 312 312 312 314 312 318 309 308 310 306 303 304 305 305 307 306 306 307 307 306 304 305 306 307 311 308 308 313 309 306 308
311 310 311 311 310 309 309 309 308 306 306 303 303 299 304 304 306 305 304 301 305 302 304 303 303 300 300 302 301 301 302 303 304 305 306 307 308 308 307 309 307 307 310 307 306 308 308 309 310 311 311 311 310 310 311 312 316 313 312 313 311 317 311 307 307 304 304 302 306 305 305 305 303 304 307 309 308 310 308 309 311 312 313 308 305 306 314
311 311 311 311 310 310 310 310 309 308 306 301 301 300 301 299 299 301 304 300 301 301 302 301 303 301 301 301 301 303 302 303 304 303 305 308 309 310 310 309 307 307 307 307 310 310 310 311 311 313 312 310 309 310 312 312 314 315 315 313 311 314 314 309 312 304 304 303 304 305 303 297 299 313 312 312 308 307 306 307 309 313 312 310 312 313 318
311 311 311 311 310 310 310 311 310 307 306 304 304 301 302 303 302 300 302 296 296 301 301 298 299 300 300 301 301 301 301 302 302 304 302 305 307 309 310 309 309 306 309 312 311 311 311 312 312 313 311 312 309 310 311 311 311 315 312 317 312 313 314 310 309 306 302 304 305 301 296 298 313 313 311 310 310 312 311 314 315 315 315 314 311 313 316
311 311 311 311 310 310 310 310 311 308 307 307 305 301 303 304 301 301 302 299 295 299 295 296 300 300 301 301 301 302 303 304 304 305 305 304 307 309 310 308 306 308 311 309 309 312 312 311 313 313 311 313 311 311 310 310 309 311 311 316 316 311 311 309 307 307 304 303 302 294 298 308 311 313 312 314 311 310 310 309 312 314 313 316 314 316 319
311 311 311 311 310 310 311 311 310 309 307 306 304 303 304 304 302 302 301 297 297 298 297 298 299 300 300 300 300 301 303 304 306 305 305 308 307 307 310 310 310 310 309 309 309 312 312 312 309 310 308 311 311 308 307 308 307 309 311 312 314 316 315 312 304 307 302 304 302 301 308 306 310 308 310 310 312 310 309 304 310 320 318 315 315 318 320
310 311 311 311 310 311 311 310 310 309 308 306 306 304 304 304 303 302 302 301 297 299 297 294 298 299 300 300 300 300 302 302 303 305 305 306 307 310 309 309 309 308 309 310 312 315 311 312 305 303 305 304 300 303 307 307 307 308 310 311 316 320 312 313 307 301 306 303 300 301 300 298 305 317 320 315 314 317 320 313 308 321 319 317 318 318 322
310 310 310 311 311 311 310 310 310 309 308 306 306 304 304 305 305 303 303 302 298 290 298 300 300 299 298 299 300 299 298 300 301 302 305 308 306 308 309 308 308 310 312 311 312 312 309 306 303 304 301 303 305 303 303 305 304 306 309 310 311 312 319 317 309 303 302 302 299 299 298 302 313 314 316 313 314 314 316 308 303 318 323 319 318 318 321
309 310 311 311 311 310 310 310 310 309 308 306 305 304 302 305 304 303 302 302 299 294 300 301 300 300 299 298 300 300 301 299 300 299 300 303 303 304 304 305 311 313 312 313 313 308 306 306 305 307 306 304 303 303 303 303 303 302 306 309 310 310 309 310 306 304 305 304 300 298 304 303 312 315 313 309 313 315 311 298 300 318 320 319 319 320 322
309 310 310 311 311 310 310 309 309 309 308 308 306 303 302 306 306 304 303 300 296 296 301 303 299 297 297 298 296 300 302 302 301 302 301 302 303 300 299 303 305 312 314 314 310 307 304 305 303 302 302 305 304 303 300 303 303 304 303 305 304 306 306 307 304 304 303 301 302 302 304 311 312 311 311 310 313 312 302 294 305 322 323 321 322 323 324
309 309 310 310 311 310 310 309 309 308 309 306 308 304 303 306 307 306 303 299 296 291 298 300 303 299 302 304 301 302 302 301 299 297 296 300 301 300 300 302 306 303 310 307 310 306 303 302 302 303 303 304 303 302 306 302 303 302 304 302 302 303 307 302 303 302 302 303 300 301 305 311 313 311 310 313 309 301 299 311 325 326 323 321 322 323 324
308 310 310 310 310 310 310 310 308 308 309 308 307 302 304 306 307 306 302 298 298 296 299 299 300 298 303 300 299 298 299 301 299 296 296 294 302 301 306 302 306 306 310 311 305 305 303 302 304 305 301 303 303 303 303 303 305 305 304 307 305 305 303 301 301 303 300 302 299 296 291 307 309 311 311 312 306 308 321 325 318 318 325 322 321 323 323
308 310 310 310 310 310 310 310 308 308 309 308 306 304 301 306 306 307 307 303 299 294 296 300 301 301 303 302 303 302 300 297 298 295 297 297 300 300 297 299 299 301 302 304 303 302 304 303 304 305 307 303 306 305 301 304 305 304 305 307 305 310 302 301 303 306 299 299 296 295 306 313 311 313 309 312 315 320 317 319 318 322 321 323 324 324 325
308 309 310 310 310 310 310 310 310 309 309 309 306 305 301 304 307 307 307 306 300 297 298 302 303 303 304 305 305 304 302 301 302 302 298 297 302 300 300 301 301 302 304 306 302 301 302 303 305 304 305 306 307 304 303 300 299 306 307 306 301 309 305 308 300 308 303 302 306 314 317 313 314 315 316 319 320 319 320 319 319 323 322 324 324 325 324
309 309 309 310 310 310 310 309 309 309 309 310 307 304 300 302 304 308 306 300 303 303 304 303 303 303 305 306 308 308 307 308 306 305 303 299 298 302 300 301 302 305 307 305 300 301 301 303 302 305 305 306 306 305 303 303 303 305 303 305 306 308 310 312 309 308 312 313 312 313 314 315 315 315 316 315 316 317 318 317 319 321 324 324 323 325 324
308 309 309 310 310 310 310 310 309 310 309 309 309 305 303 304 305 305 303 302 299 296 298 298 298 298 299 300 303 306 306 306 307 307 308 306 298 299 303 305 305 304 306 306 306 302 301 302 304 306 302 306 306 305 302 301 304 305 305 305 307 308 309 309 306 311 303 300 315 313 314 314 315 315 317 317 317 318 320 321 320 323 322 321 323 325 325
308 308 309 309 310 310 310 310 309 309 309 309 309 309 306 304 305 304 300 296 295 295 290 295 297 298 302 305 305 304 305 307 308 306 306 306 304 300 301 304 306 302 302 304 307 305 304 300 302 300 300 304 306 299 306 304 303 304 303 306 307 306 311 309 307 307 305 306 314 312 313 316 317 315 315 317 318 319 320 323 325 324 322 323 323 324 323
308 308 308 309 309 310 309 309 309 309 309 310 309 306 303 303 306 306 304 303 301 298 291 292 295 302 304 302 300 302 305 305 305 304 304 305 307 307 305 306 306 308 306 306 305 302 302 302 302 302 300 302 308 304 305 305 304 305 301 304 308 309 311 304 306 305 308 313 314 310 311 317 318 317 318 318 319 320 319 320 321 321 321 320 321 323 323
307 308 308 309 309 309 309 309 309 309 309 309 308 306 304 305 306 305 302 300 296 292 293 293 297 299 300 299 302 304 305 305 305 304 304 304 304 305 305 305 303 305 304 302 305 303 304 302 301 300 302 302 305 303 303 303 302 302 302 306 309 307 305 306 306 304 304 303 306 308 303 304 309 311 315 319 319 318 320 319 320 321 322 321 320 319 321
307 307 308 308 309 309 309 309 309 309 309 309 308 307 305 305 307 307 307 305 299 292 293 293 294 298 302 297 302 303 304 305 305 304 304 303 304 303 303 303 304 302 302 300 300 302 301 298 298 303 303 306 302 301 305 304 305 302 302 305 309 306 309 307 303 302 302 307 308 311 309 310 312 315 319 320 318 318 320 323 322 322 324 322 321 318 319
307 307 308 308 309 309 309 309 309 309 308 305 307 306 306 308 308 307 307 307 306 299 296 296 299 298 292 297 303 303 305 305 304 303 303 303 303 303 302 303 303 303 302 301 300 301 300 301 303 300 301 308 302 300 301 299 300 299 305 308 308 310 313 307 306 305 306 308 308 311 311 309 312 314 316 318 321 318 316 317 319 322 322 322 323 323 321
307 307 307 308 308 308 308 309 309 308 307 307 305 301 298 300 307 307 308 307 305 302 295 293 291 294 301 300 300 302 302 304 303 303 302 302 302 302 303 303 303 303 302 300 300 297 301 301 302 304 305 310 301 302 298 299 298 301 306 307 309 311 309 311 310 306 306 309 310 313 315 315 316 317 317 319 322 319 317 318 319 319 319 322 323 324 326
307 307 307 307 308 308 308 308 309 308 306 305 301 294 292 290 302 309 308 308 308 302 298 297 293 297 296 301 301 300 301 302 303 303 303 303 303 303 304 304 303 303 299 300 299 300 302 298 300 302 305 306 304 300 298 297 296 299 303 306 308 307 308 309 311 310 308 309 312 314 316 316 319 317 318 320 322 322 322 322 323 323 324 323 323 326 324
307 307 307 307 307 307 308 308 308 308 307 303 298 295 297 300 306 307 308 308 308 302 296 292 292 293 293 296 299 302 301 302 302 303 304 304 302 303 303 302 301 303 302 300 301 299 300 302 300 301 301 309 305 300 300 298 296 298 303 304 308 308 308 308 308 309 310 313 310 308 307 309 312 309 308 314 315 316 318 324 325 325 325 323 322 320 319
307 307 306 306 307 307 307 307 308 308 307 307 306 306 306 306 306 307 308 308 305 301 300 294 289 292 291 293 298 299 302 303 302 302 302 305 302 303 301 302 302 301 305 301 298 296 302 301 302 298 302 308 302 300 298 297 299 303 303 305 305 307 309 310 309 310 311 312 310 306 306 307 310 312 315 315 315 315 319 318 320 324 322 318 317 318 318
306 306 306 306 307 307 307 308 307 305 304 303 300 301 304 305 306 305 308 306 301 301 301 293 290 289 291 298 291 298 302 297 297 299 299 304 305 303 301 300 301 298 301 298 301 301 302 302 300 300 303 301 303 299 294 298 302 302 303 304 306 307 308 310 310 310 311 311 314 312 311 312 313 315 316 316 317 319 320 319 318 318 319 317 317 319 320
306 306 306 306 307 307 307 307 305 304 300 299 300 304 305 305 306 307 306 304 296 294 295 294 294 289 289 292 291 295 302 298 295 298 295 300 306 302 302 300 300 297 300 303 300 299 298 299 303 299 296 303 300 295 297 299 301 302 304 303 306 309 309 306 306 309 309 312 311 312 313 312 312 312 312 313 313 316 316 318 318 318 318 317 320 320 319
306 306 306 306 306 307 307 306 304 301 298 298 299 306 308 311 310 308 308 307 301 295 293 292 293 289 291 286 288 295 302 295 298 298 298 299 299 304 303 300 296 299 305 298 297 299 296 305 300 294 302 296 295 298 300 302 301 302 303 303 305 306 306 305 306 307 308 310 311 311 310 311 310 312 314 314 315 316 316 315 317 319 318 319 319 320 320
306 305 306 306 306 303 300 300 304 302 300 303 305 308 309 309 308 308 306 304 305 305 296 293 290 290 292 292 295 298 298 291 297 296 297 296 295 299 302 302 297 303 302 299 299 297 301 311 299 296 297 294 297 303 303 303 302 302 303 305 307 310 310 311 311 310 308 309 309 310 310 310 311 314 315 314 315 315 315 314 316 317 317 318 320 319 319
306 306 305 302 299 295 295 298 300 304 307 306 307 304 304 304 297 299 301 297 300 301 297 295 290 293 296 293 289 298 296 293 298 293 295 298 296 296 303 301 300 302 294 297 300 307 304 303 300 297 298 302 305 304 304 306 306 307 308 308 308 309 310 311 311 309 308 307 308 310 311 311 311 314 313 313 314 315 316 316 318 319 319 320 321 321 320
304 304 301 301 297 294 295 300 307 308 307 308 307 299 296 300 296 292 293 296 298 293 297 294 291 295 293 292 294 300 296 294 293 295 292 298 295 292 300 294 301 300 293 295 298 305 296 298 299 298 297 302 302 304 307 307 308 308 309 310 310 311 312 312 313 311 310 309 310 311 311 309 310 310 312 315 316 316 316 317 317 318 319 321 322 322 320
302 297 297 297 295 298 306 308 309 307 306 299 301 297 291 297 291 286 297 290 289 294 296 290 295 295 295 293 293 294 300 296 292 292 294 296 301 293 298 297 301 298 290 292 295 304 296 292 298 296 295 301 302 308 306 306 307 310 312 313 314 315 316 315 315 315 314 314 313 313 313 312 312 311 311 311 312 314 315 316 317 318 320 321 321 320 320
299 299 298 296 299 303 305 309 309 306 300 296 295 295 293 287 293 294 293 287 288 290 297 295 296 294 296 296 295 293 301 301 301 301 297 293 304 301 296 291 303 293 291 292 300 300 300 296 295 293 295 303 304 304 306 307 308 308 311 315 315 316 316 316 316 316 315 314 314 314 314 314 313 313 312 313 313 314 316 316 317 318 319 319 319 320 320
302 303 304 306 305 306 305 304 302 298 296 297 289 284 289 290 294 292 293 286 288 293 293 295 293 295 295 297 296 297 299 302 302 301 298 293 301 297 295 297 297 290 288 295 301 298 296 291 292 293 300 303 305 306 306 304 307 309 312 315 316 316 315 315 315 315 316 315 314 314 314 315 314 314 314 314 316 318 317 316 317 318 320 321 320 317 318
303 305 304 301 302 299 301 292 296 295 286 286 285 282 288 283 287 287 289 293 297 294 294 300 299 300 300 301 298 299 299 304 299 298 296 294 302 299 295 291 291 286 293 302 298 295 291 290 291 295 301 302 303 303 304 305 310 313 314 315 316 316 315 315 315 314 315 315 315 314 314 314 313 314 315 317 316 316 317 318 319 320 321 319 317 317 317
305 304 298 298 294 295 295 282 295 289 285 286 284 280 284 282 286 289 288 290 294 293 296 294 295 295 294 301 298 300 299 302 304 301 299 300 296 292 293 288 291 298 301 296 294 290 291 294 295 298 303 302 302 304 306 308 309 311 312 314 315 315 315 315 315 314 314 315 315 315 315 315 315 316 316 316 316 316 317 319 321 321 319 317 316 315 316
296 292 291 289 286 290 288 281 292 287 282 284 287 285 286 283 286 289 289 295 295 294 298 297 300 297 295 302 303 302 301 297 303 296 291 297 292 293 290 290 296 297 293 289 291 292 293 292 300 301 302 301 303 305 308 310 312 312 312 313 314 314 315 315 315 314 314 314 314 314 314 315 315 315 315 316 316 318 319 319 317 315 314 314 315 315 316
293 288 288 285 282 286 286 283 285 283 287 290 289 290 289 290 290 291 295 298 295 300 298 298 299 299 297 303 297 296 299 298 296 296 297 296 290 288 295 300 299 290 289 289 287 287 290 295 299 300 301 303 305 308 310 311 312 313 313 311 313 314 315 315 315 315 314 314 314 314 313 313 313 312 312 313 314 314 315 315 316 315 314 315 316 316 315
292 294 289 288 285 287 291 284 285 289 291 292 294 294 293 294 294 295 297 297 296 298 301 302 302 301 298 298 298 298 299 299 294 296 298 291 290 294 299 292 287 289 286 286 287 290 294 298 301 303 304 305 306 308 309 310 311 313 313 314 314 313 314 315 315 314 315 316 314 313 313 313 313 313 314 314 314 314 315 315 316 318 317 317 317 316 315
286 291 289 283 282 286 284 288 293 293 294 295 295 296 295 296 294 293 297 299 301 303 301 302 298 301 298 304 301 294 296 297 294 294 298 294 296 291 288 288 288 290 292 289 290 296 297 300 303 304 305 306 306 307 308 310 312 313 314 314 315 314 315 315 315 315 316 316 315 315 315 316 315 316 315 314 313 312 313 314 315 316 315 315 315 316 316
293 288 286 285 289 289 290 293 291 290 292 293 294 294 294 294 294 296 298 304 304 302 303 301 300 299 293 297 295 294 290 297 289 288 295 292 287 285 285 283 286 286 292 295 295 297 299 303 305 304 305 305 306 308 309 311 311 312 313 313 313 314 315 315 315 315 316 316 316 316 316 316 316 315 315 316 315 314 313 313 313 313 314 315 315 315 315
288 287 291 288 288 290 292 293 291 289 292 293 293 293 295 294 294 296 302 301 302 302 303 301 302 296 293 294 287 289 289 294 293 292 290 287 288 290 288 285 288 289 293 300 300 301 302 303 303 303 304 305 307 309 310 310 312 313 314 313 313 314 314 315 314 316 316 316 316 315 315 315 315 315 315 315 315 314 314 314 315 315 316 316 316 316 316
292 289 291 295 290 288 291 287 287 288 290 291 292 294 295 295 296 298 303 303 302 300 298 293 293 291 290 289 286 283 285 295 292 290 289 289 294 291 288 288 291 297 299 302 302 302 302 303 304 304 305 306 307 309 311 312 313 312 312 313 313 313 314 314 314 314 315 316 317 316 315 314 314 315 315 315 314 314 314 314 315 315 315 316 317 316 316
288 286 289 292 294 291 292 293 292 292 293 294 294 295 297 295 298 301 305 304 300 295 292 296 292 288 286 285 288 292 296 293 289 291 289 292 296 292 292 294 297 300 301 300 300 302 304 305 306 306 306 307 308 309 309 310 311 311 311 311 312 312 312 313 314 314 314 314 315 315 315 314 315 315 315 315 314 313 313 312 313 315 316 316 317 316 316
Wind_Speed
19 20 20 21 21 21 22 23 23 23 25 12 8 7 2 2 4 4 2 6 1 2 2 2 1 3 0 3 3 2 2 3 1 3 1 3 2 2 3 4 5 5 4 3 3 4 3 5 5 3 5 2 7 3 4 5 1 1 3 4 4 3 3 4 2 1 2 1 1 3 2 2 4 1 2 6 7 5 5 3 3 5 5 3 2 4 4
20 21 21 21 21 21 22 22 23 23 20 10 8 3 1 2 4 5 1 4 1 4 4 4 4 2 1 0 3 2 3 1 3 4 2 3 1 3 2 1 4 2 1 3 4 5 4 5 2 2 3 3 2 3 5 7 6 7 8 7 8 6 2 3 4 3 2 1 3 3 2 2 3 2 4 1 4 6 5 6 1 2 5 3 4 8 5
20 21 19 19 20 21 22 22 23 23 21 9 2 3 3 3 3 3 7 4 1 4 2 1 2 2 1 1 2 4 2 3 5 5 6 2 3 1 3 2 1 1 1 1 1 2 2 2 2 2 3 1 1 0 2 8 8 2 3 5 9 2 5 7 7 8 7 7 6 8 8 8 3 2 4 3 7 11 6 4 3 4 2 4 3 7 3
19 20 19 19 20 21 21 22 23 24 21 8 2 2 3 3 1 2 1 5 4 5 1 3 1 2 1 2 2 0 3 2 1 2 5 3 6 5 5 1 2 0 2 2 1 2 2 2 2 3 3 2 1 1 2 6 4 1 6 7 7 4 1 3 6 9 9 10 5 4 5 6 7 5 8 7 2 2 3 4 4 8 3 6 4 5 4
19 20 19 19 20 21 21 21 24 25 21 8 2 1 1 1 1 3 3 4 5 3 4 4 3 1 1 1 2 2 2 5 5 3 2 5 6 3 1 2 3 2 3 1 1 1 3 2 2 1 2 1 1 1 1 3 4 10 8 2 5 4 4 4 4 7 1 4 2 2 2 7 3 9 8 6 7 8 8 7 6 7 7 5 3 5 6
19 19 19 19 20 21 20 21 24 25 24 4 2 1 2 1 1 1 1 2 2 2 3 7 3 3 2 2 1 3 4 4 4 6 2 5 5 6 2 3 5 4 3 2 4 2 1 1 4 1 1 0 0 3 1 3 2 3 3 1 3 5 6 3 4 3 1 1 3 1 1 3 4 6 10 10 8 8 11 5 5 7 6 9 3 5 5
19 19 19 18 18 19 19 21 24 26 25 9 2 2 3 2 2 0 3 1 1 2 5 5 3 4 5 2 4 3 5 4 3 2 7 6 4 8 1 4 9 8 6 3 2 4 5 4 1 3 3 1 1 3 2 0 1 3 3 2 1 3 3 3 1 5 4 3 0 1 4 4 5 5 7 6 9 8 6 3 5 9 6 2 1 5 11
18 19 20 18 17 19 19 20 23 26 25 9 5 7 3 4 4 2 4 1 2 3 3 2 1 3 6 1 5 2 5 5 8 1 2 4 5 6 3 10 12 10 6 2 1 1 4 3 2 1 2 2 2 2 2 3 2 1 2 0 1 3 3 3 3 3 2 2 2 3 4 4 6 2 1 2 3 3 2 1 2 1 5 7 7 7 12
18 18 19 19 18 18 18 19 21 24 21 5 7 4 6 2 1 1 3 1 4 3 3 2 2 2 4 3 3 2 5 5 5 6 3 1 4 6 8 10 12 4 0 5 5 4 5 6 6 4 4 2 1 1 2 3 4 2 3 1 1 2 2 1 2 4 2 2 2 4 4 4 3 2 5 5 6 6 4 4 5 4 4 2 1 5 7
17 18 17 18 17 18 18 17 19 20 16 4 3 5 5 2 2 2 2 1 4 4 3 1 2 3 2 3 3 2 4 4 7 3 2 1 3 6 8 9 5 3 2 6 6 10 8 11 10 7 7 8 9 6 5 4 1 3 2 1 2 2 6 5 3 4 2 2 0 5 5 3 3 7 11 11 6 2 3 0 3 9 5 6 6 8 4
17 17 17 18 17 18 18 16 17 19 12 9 5 4 7 5 4 3 2 1 2 4 2 4 3 3 2 3 3 2 4 4 6 3 1 3 1 6 7 7 5 1 2 4 9 10 11 10 10 7 7 9 8 4 4 3 2 1 5 3 2 2 6 3 1 5 3 3 3 2 4 7 5 2 4 7 10 11 8 6 8 8 7 4 3 6 3
16 16 16 17 16 16 16 16 14 16 12 4 1 3 5 3 1 1 3 2 2 4 3 4 4 2 3 6 4 3 6 7 5 1 5 5 8 8 6 4 4 1 2 9 10 11 8 4 5 5 8 6 2 2 3 4 2 2 2 3 4 5 3 3 1 3 4 3 3 4 9 7 4 2 2 1 3 5 7 2 3 4 7 7 8 10 9
15 15 15 15 16 15 14 15 14 14 14 6 3 5 5 3 1 2 2 1 2 3 3 2 3 2 4 6 6 5 8 8 7 7 8 7 6 4 3 3 4 5 12 14 12 7 2 1 1 1 1 1 4 7 8 5 4 3 2 2 6 6 5 4 3 3 4 3 5 5 3 2 4 2 3 3 5 4 2 5 8 9 10 10 9 11 11
15 15 15 15 15 15 16 15 13 13 14 9 4 4 5 5 3 2 2 2 1 1 1 2 2 4 8 7 6 10 7 6 8 3 2 3 5 7 5 3 5 9 9 8 6 2 2 1 2 2 1 3 2 2 3 5 7 5 2 2 1 8 5 4 4 1 4 2 7 5 4 4 3 2 4 7 4 6 4 7 4 5 5 9 7 9 7
15 13 14 14 14 15 14 14 13 13 12 12 3 2 5 6 3 1 0 2 2 1 1 2 3 4 7 5 6 7 4 6 7 1 3 3 4 3 6 9 9 9 7 4 2 1 0 2 3 4 1 3 5 3 2 1 2 6 3 2 3 4 5 1 3 2 1 3 3 2 4 8 4 7 0 1 2 2 3 4 7 4 6 7 9 9 4
14 14 14 14 14 14 14 14 12 10 10 13 5 3 3 6 3 1 1 2 2 0 2 2 2 3 5 4 4 5 5 5 5 5 5 1 2 8 3 7 10 7 4 1 1 1 1 4 2 4 4 4 2 2 3 2 2 3 4 3 7 5 5 5 4 4 3 3 5 5 6 4 1 7 2 3 1 5 6 2 8 4 6 9 9 8 5
13 13 13 13 13 12 13 13 12 11 9 12 7 3 5 6 5 3 2 1 1 2 1 2 3 2 3 2 0 1 4 4 5 4 4 5 7 8 11 12 7 3 7 2 3 1 1 3 1 1 1 1 4 2 3 1 3 2 4 5 7 6 2 4 4 4 4 5 5 7 4 3 3 5 2 1 2 4 2 7 6 3 6 8 9 9 8
14 13 13 12 11 12 12 12 13 12 10 11 6 2 4 6 6 3 2 1 2 2 1 2 4 1 2 2 2 3 3 2 1 1 3 4 4 6 9 9 9 5 6 1 2 1 2 1 3 3 4 1 2 0 4 3 4 3 4 3 3 3 2 1 5 5 4 6 4 2 3 4 6 5 3 4 3 5 7 6 8 3 3 7 9 9 8
13 13 13 13 12 11 11 11 12 13 10 9 8 0 1 5 8 5 1 1 1 1 1 0 1 1 1 2 3 3 2 3 2 3 5 3 1 8 10 6 3 5 7 3 2 2 0 2 1 2 1 2 2 1 2 3 3 2 3 5 3 2 3 2 1 4 5 3 5 4 2 2 2 3 3 5 6 5 8 4 2 1 5 6 7 6 7
12 13 12 11 11 11 10 10 10 11 11 8 7 4 3 3 5 6 4 2 0 3 5 4 2 3 2 1 1 1 1 2 3 2 3 3 6 13 2 2 2 3 2 3 1 1 1 1 1 1 1 1 1 1 1 2 2 1 2 1 2 4 4 3 4 3 3 2 2 0 3 2 3 10 5 1 4 4 2 2 2 2 3 7 7 7 8
12 12 12 11 10 10 9 9 9 9 10 7 6 4 2 1 4 5 3 2 2 4 1 1 1 3 2 1 1 2 3 2 3 2 2 4 6 5 1 2 6 5 4 4 2 2 1 1 1 1 2 1 2 2 2 1 3 1 2 0 2 2 3 1 2 2 2 3 4 2 0 4 2 5 4 7 7 2 1 2 4 3 3 5 5 6 8
11 11 11 11 10 10 9 9 9 8 8 7 6 4 2 3 4 4 5 2 4 4 2 2 3 6 8 8 8 7 8 9 7 5 5 4 2 2 3 5 4 3 3 3 1 2 1 1 0 1 1 2 1 0 1 3 5 3 1 1 4 1 2 1 1 3 4 2 2 1 1 2 2 3 6 6 6 6 5 3 6 5 5 3 4 7 7
10 10 11 11 10 9 8 7 7 7 8 5 5 4 4 7 5 7 4 3 4 5 4 4 4 6 6 6 5 5 5 6 6 5 6 3 3 1 2 3 2 4 3 4 4 3 2 2 1 2 0 1 1 2 1 2 1 2 2 3 3 2 2 2 1 2 3 4 6 5 5 4 6 6 6 10 11 7 5 7 7 7 4 5 5 5 6
8 9 10 10 10 9 8 8 7 7 6 7 3 5 5 5 6 7 4 2 1 4 1 1 2 1 1 2 3 3 3 4 5 5 5 6 2 0 1 1 3 3 1 3 2 4 3 2 2 1 0 2 1 1 2 3 0 1 1 4 1 2 2 1 0 1 1 1 2 2 6 7 7 7 6 7 9 7 4 5 7 5 3 5 2 3 7
8 9 9 9 10 9 7 7 6 6 6 6 4 0 2 3 1 4 4 3 3 3 2 2 2 1 1 4 6 6 4 2 2 3 5 8 8 4 1 4 4 4 6 7 5 3 2 2 1 1 0 2 2 0 2 1 2 1 1 2 1 4 1 3 2 1 2 1 5 8 10 9 8 6 6 5 4 5 4 4 2 2 1 1 3 5 6
8 8 8 9 9 9 7 6 6 5 5 4 3 3 4 4 3 3 2 2 2 1 2 1 0 1 3 7 4 3 3 4 4 4 7 8 9 8 8 7 5 1 4 4 3 3 2 2 1 1 1 2 1 2 0 1 2 1 3 2 2 4 5 1 1 2 3 3 1 12 15 5 2 2 6 6 4 3 1 2 4 5 6 5 4 3 6
8 8 8 8 8 8 6 6 5 4 4 3 1 2 3 3 1 1 3 3 2 1 1 2 3 3 3 7 5 3 3 3 3 4 5 6 7 7 7 6 6 4 4 4 1 1 1 1 2 2 2 1 3 3 2 3 3 2 2 2 1 2 2 1 2 1 1 3 5 9 8 7 11 14 10 6 3 4 2 3 3 5 7 6 7 5 2
7 7 8 8 8 7 6 5 4 2 2 3 3 2 0 1 1 1 1 2 3 2 3 4 4 6 6 5 3 4 5 5 4 4 5 5 6 6 6 6 4 4 2 2 2 0 1 3 2 1 2 3 3 3 2 1 1 4 6 5 3 4 3 2 1 1 3 4 6 2 4 9 10 10 8 7 5 4 4 2 5 6 6 7 9 8 4
8 8 8 8 7 7 6 4 4 3 1 2 3 1 2 1 0 1 1 3 3 1 3 6 6 4 1 3 6 5 2 3 5 5 5 5 5 6 7 6 6 4 2 2 3 2 3 3 3 3 2 3 3 3 2 5 5 6 4 6 6 3 3 2 3 5 6 3 5 5 2 6 11 15 12 9 2 4 5 5 5 2 2 4 4 8 10
8 7 8 8 7 6 6 4 1 3 2 1 1 0 1 2 3 3 0 4 4 2 3 4 3 1 2 3 3 3 5 4 5 6 7 6 5 5 6 6 6 4 3 3 1 4 3 4 3 3 5 1 4 2 4 3 5 4 3 3 5 2 2 2 1 3 4 5 6 4 5 7 8 8 9 7 3 3 3 3 1 2 3 1 4 4 3
7 7 7 7 6 5 4 4 3 3 2 0 0 1 1 0 1 2 2 2 3 2 2 2 5 5 5 1 2 5 8 8 5 4 5 6 5 5 4 4 4 4 4 4 3 5 1 3 2 2 2 5 3 3 4 4 7 3 2 2 1 1 2 2 2 4 5 6 7 7 7 7 5 7 6 2 4 2 3 3 4 4 3 3 3 2 3
6 6 6 6 5 5 3 3 4 5 1 1 1 1 1 1 2 1 3 4 3 2 2 4 3 1 3 2 2 3 7 7 4 3 1 2 3 4 5 7 4 6 5 4 3 1 5 6 6 5 5 2 4 6 5 7 9 6 1 2 1 1 4 8 11 11 7 4 8 12 11 8 3 4 8 11 11 8 8 9 4 5 6 4 1 1 1
6 6 6 5 5 3 2 1 5 5 2 2 6 9 11 12 12 9 5 3 2 0 0 1 2 3 3 2 5 3 6 3 1 5 2 1 2 4 3 3 3 3 5 3 3 4 2 5 6 8 8 2 4 5 7 11 9 3 4 5 10 10 7 5 9 8 7 4 4 7 9 11 11 11 8 9 11 10 7 7 7 2 3 3 4 4 4
5 5 4 4 4 3 2 4 4 3 1 2 3 1 1 0 2 2 2 2 0 1 0 1 2 2 4 3 2 3 6 4 2 5 0 2 1 2 2 3 4 4 6 8 2 2 2 1 5 5 0 4 7 6 9 8 7 10 10 10 10 11 10 8 6 7 7 7 5 7 9 10 10 7 8 8 10 8 5 5 5 7 7 7 7 6 6
5 3 2 3 3 2 5 7 3 1 2 1 3 4 3 4 3 2 4 0 2 1 0 1 0 2 3 1 1 3 5 3 3 4 2 1 2 1 1 2 3 3 3 3 3 5 5 6 3 3 6 2 4 7 7 5 3 2 4 6 7 7 7 9 9 8 9 6 7 7 7 7 7 9 8 10 11 9 7 7 8 10 9 8 6 6 6
5 4 3 3 4 4 3 3 2 1 1 2 2 1 3 5 4 3 1 1 1 1 1 1 1 1 2 2 2 2 5 1 2 2 1 3 1 1 2 1 3 2 3 5 3 3 5 4 4 7 4 6 9 8 4 4 6 7 7 9 8 8 10 12 14 14 14 13 11 8 8 9 12 11 9 10 10 9 8 9 9 9 10 7 7 7 6
6 5 4 4 3 3 2 2 1 3 1 1 1 5 3 4 3 2 2 1 1 1 1 1 2 2 2 2 2 2 5 2 4 2 2 2 2 2 2 1 2 1 2 3 3 5 3 2 5 7 7 10 7 4 6 7 9 9 9 10 9 8 8 8 10 12 13 13 14 12 10 11 11 9 9 10 10 8 7 10 11 11 13 13 10 10 10
5 3 3 3 3 2 2 3 2 0 1 3 3 2 2 2 1 0 1 1 1 2 1 1 3 1 1 2 2 3 3 1 2 3 1 1 2 1 1 2 1 1 3 3 2 1 0 3 5 9 11 9 6 5 4 5 8 8 7 8 8 8 8 8 9 9 10 12 11 10 10 10 10 8 9 11 11 10 9 10 10 11 11 11 9 8 7
5 3 3 2 2 3 2 2 1 2 1 2 1 1 1 0 1 1 1 1 1 2 2 3 2 1 3 3 4 0 2 3 3 1 1 3 2 2 1 1 2 1 1 2 2 2 5 4 4 5 10 5 4 8 9 9 5 3 4 5 7 7 8 9 8 9 10 10 12 13 13 13 14 14 11 10 9 9 8 8 8 8 8 6 5 6 7
2 3 2 3 3 2 1 1 2 2 0 1 0 1 1 1 1 1 1 0 1 2 2 3 2 3 4 4 3 1 1 2 2 3 3 2 1 2 2 2 1 2 2 3 1 2 4 5 2 3 6 2 3 3 3 1 3 4 4 5 6 7 7 8 9 9 10 12 14 15 16 17 17 15 13 13 12 10 8 8 7 5 5 5 7 8 9
2 2 3 3 2 2 1 1 1 0 1 1 1 0 1 1 2 1 1 0 2 1 1 2 1 2 3 3 3 2 2 0 0 1 1 2 0 1 2 0 2 2 3 4 1 2 2 3 4 7 5 2 2 3 3 3 5 8 8 7 7 7 8 9 10 10 11 11 11 12 14 16 16 15 14 14 12 10 7 6 6 6 7 8 9 7 5
4 2 2 3 2 1 2 2 1 1 1 1 1 1 1 2 1 1 2 2 1 1 3 4 2 2 1 5 3 2 1 0 1 0 2 1 3 2 2 3 3 1 2 1 3 2 2 4 4 4 2 2 4 2 4 8 9 9 10 9 8 8 8 9 11 12 10 10 11 12 13 14 15 12 11 10 8 6 6 7 8 9 10 8 8 7 7
8 6 4 2 1 1 1 1 2 1 2 2 1 2 1 0 2 2 2 3 1 2 1 2 1 1 1 2 2 2 1 1 1 1 1 2 1 0 1 1 1 1 2 3 2 2 5 6 6 4 2 3 5 8 10 10 8 7 8 8 7 7 8 10 10 12 12 11 11 12 13 13 12 11 9 7 7 8 9 10 12 11 8 7 7 7 6
3 1 2 0 1 1 1 1 1 1 1 1 3 3 4 2 2 3 3 2 3 2 3 3 2 3 1 1 1 1 1 1 0 2 2 0 1 1 1 1 3 2 2 3 3 5 6 6 8 7 5 6 6 8 8 9 10 9 9 9 8 7 8 9 9 10 10 9 8 9 9 9 8 5 6 7 9 11 11 10 8 8 9 9 9 9 6
3 2 1 1 1 0 1 1 1 1 3 3 2 3 5 3 3 5 2 2 1 1 2 2 1 1 1 2 1 1 1 0 1 2 1 0 1 1 2 2 3 3 3 5 4 5 3 7 2 2 4 7 9 10 10 9 9 9 9 9 8 7 7 8 8 8 7 7 7 6 4 3 2 4 5 6 8 9 3 5 9 12 12 12 10 9 7
3 2 2 2 3 0 1 1 2 2 3 3 4 3 4 3 1 3 1 0 1 1 2 1 1 1 0 2 1 1 2 1 1 0 1 1 1 2 1 2 2 4 3 3 5 8 8 5 3 5 7 8 9 10 10 11 10 9 9 8 7 7 7 8 7 6 6 6 3 2 4 5 8 9 11 13 14 14 13 10 8 8 12 12 10 9 8
2 2 0 0 2 2 1 3 4 2 0 2 3 4 4 1 1 1 1 1 1 1 1 1 1 1 1 1 1 1 1 1 2 1 1 3 2 2 1 3 4 3 4 7 7 7 6 4 4 4 7 10 12 12 12 12 12 11 9 7 7 7 6 6 6 6 5 4 1 4 6 8 10 9 10 12 12 12 11 7 5 6 4 6 7 7 7
2 1 1 1 2 4 5 4 1 1 1 1 1 1 1 1 1 2 1 1 1 0 0 0 0 1 0 1 1 2 1 1 2 2 2 2 1 2 1 3 5 5 5 6 7 6 7 6 6 9 10 11 13 13 13 13 13 11 9 7 7 7 5 5 6 6 6 5 4 4 4 6 7 8 9 12 14 13 11 6 4 5 7 6 4 6 7
2 1 1 0 0 2 2 1 0 1 1 0 1 1 3 4 4 2 1 0 1 3 2 1 1 0 2 3 3 2 1 1 2 1 0 2 1 2 2 4 6 8 7 7 8 7 8 9 11 13 14 15 13 12 12 10 10 9 7 6 6 7 7 5 3 4 3 3 4 5 6 6 6 7 7 8 9 8 8 7 6 5 6 5 3 5 6
1 1 1 1 1 2 1 1 1 2 1 1 2 2 1 2 2 0 2 3 3 3 3 4 2 1 2 2 1 1 1 2 2 0 2 5 5 4 4 8 8 7 5 1 5 8 10 11 12 13 14 14 14 11 9 8 7 7 6 7 5 5 5 6 3 1 1 1 4 5 6 6 6 5 5 5 5 7 7 5 4 4 5 5 5 6 6
1 0 1 1 2 1 3 4 5 3 2 2 1 1 2 2 0 2 2 2 3 3 2 1 2 2 0 1 1 1 2 2 3 5 4 4 3 4 6 9 7 5 6 6 8 10 12 11 10 11 12 12 11 9 8 7 6 5 5 4 4 4 3 4 3 1 2 2 2 4 5 5 6 4 4 5 7 7 7 5 4 3 4 4 5 5 6
1 1 2 2 2 1 3 2 1 1 1 0 0 1 1 1 1 2 1 3 3 2 2 3 3 2 1 3 3 2 1 2 3 3 6 6 4 5 6 6 7 6 7 10 10 10 9 9 9 11 9 8 8 6 6 5 4 3 3 3 4 3 2 2 1 2 3 2 2 3 3 3 5 4 4 5 6 6 5 4 4 3 4 3 4 5 5
Wind_Direction
340 343 343 340 337 337 338 338 338 341 345 355 345 320 294 5 269 329 1 359 226 230 75 8 176 200 196 359 246 230 259 259 328 331 268 274 210 266 212 214 190 236 220 199 181 181 150 175 185 169 200 243 209 149 144 133 156 95 98 70 166 173 121 113 21 6 324 105 72 75 62 158 161 87 72 165 190 198 209 208 138 176 125 190 159 238 256
343 343 345 342 338 338 338 338 339 341 354 336 307 295 358 282 291 311 249 338 318 220 196 200 200 253 325 104 280 200 270 253 269 233 238 229 229 231 251 255 222 352 124 161 189 203 171 225 194 197 209 190 88 174 170 179 182 196 184 189 169 190 239 160 114 136 123 69 195 157 121 246 213 198 150 351 82 85 92 94 55 201 198 206 172 255 271
342 344 347 344 340 339 338 339 339 342 347 353 287 332 321 282 237 256 297 325 239 207 12 268 131 152 30 328 340 352 265 210 270 299 277 275 267 281 238 258 117 198 30 112 86 61 336 119 206 9 178 132 357 285 186 207 203 212 13 0 149 183 140 161 175 165 179 186 190 210 204 197 138 121 126 175 165 133 158 174 148 236 121 170 220 248 251
344 347 350 344 342 340 340 340 341 342 347 351 238 315 283 358 5 322 315 6 48 75 331 32 11 110 79 135 64 331 311 292 340 258 280 306 297 248 291 255 205 63 186 150 83 127 7 322 147 187 173 206 203 246 289 191 210 162 144 142 143 109 78 178 175 185 196 197 192 21 92 118 192 183 177 155 132 99 90 83 147 227 157 198 214 249 320
344 349 353 345 343 341 341 344 343 343 347 348 263 270 327 270 16 350 353 330 65 80 40 27 359 68 339 139 353 9 313 289 300 77 242 24 342 296 201 275 228 197 189 165 129 353 159 49 140 157 169 167 228 272 246 143 129 132 116 115 92 114 160 181 165 218 268 66 100 165 276 171 127 150 170 152 161 169 160 193 226 109 118 244 218 176 228
345 350 353 349 342 342 345 348 347 345 346 7 235 309 343 339 71 308 24 315 9 6 42 11 352 28 236 75 316 29 340 15 356 323 100 324 15 345 159 65 37 346 319 154 173 157 72 170 177 221 333 234 120 143 160 166 332 222 118 294 198 149 182 126 179 117 141 41 76 235 118 68 156 164 155 172 171 172 196 206 113 162 227 267 94 157 206
347 348 352 354 345 344 350 353 351 349 343 345 286 26 14 38 9 35 338 240 73 329 320 326 311 28 31 99 39 37 20 24 359 300 317 350 29 14 257 25 348 335 325 263 176 171 167 197 14 215 142 154 116 147 112 131 74 163 115 104 34 125 50 155 178 121 114 120 33 294 140 111 116 131 161 162 171 193 209 166 180 195 230 296 42 185 239
348 349 350 356 351 348 356 359 357 352 344 324 75 45 342 30 360 2 349 291 306 313 324 2 12 83 354 53 25 20 10 7 350 294 265 343 9 8 14 332 329 322 317 237 180 76 6 350 162 181 178 130 258 160 250 133 123 48 119 189 100 238 139 155 178 121 98 46 106 97 89 129 129 124 117 119 125 136 184 214 143 247 289 274 254 252 271
349 350 353 357 356 354 360 4 3 358 347 43 37 57 24 339 18 352 336 15 4 329 4 23 32 90 16 43 18 338 28 7 345 292 244 348 28 16 347 325 315 312 356 88 83 35 333 298 277 322 299 242 84 253 175 214 147 73 118 11 52 20 113 275 184 149 158 51 56 70 77 79 112 156 190 168 165 190 185 216 182 192 233 198 214 264 265
349 350 354 356 360 357 1 8 8 6 351 50 6 44 354 282 196 278 274 340 22 2 326 341 220 74 38 357 347 342 1 336 325 293 160 283 84 29 339 332 292 285 49 52 356 328 300 281 284 292 279 279 280 256 286 271 227 150 94 273 136 92 136 161 153 195 156 91 203 133 136 149 207 218 221 193 194 154 113 61 184 213 191 214 236 258 271
350 351 353 355 3 1 3 8 14 12 11 29 21 30 7 19 348 337 266 317 59 7 311 31 33 67 306 8 317 291 288 335 350 351 326 341 174 1 333 344 341 8 65 355 314 297 278 269 277 275 266 273 263 256 241 225 359 167 144 112 60 149 142 148 141 208 133 118 128 138 170 221 211 89 9 162 191 184 181 193 202 210 190 220 231 281 308
350 351 354 356 3 3 4 6 17 18 22 22 288 38 12 326 261 283 336 21 66 346 40 50 17 0 347 346 324 316 322 326 320 234 258 287 301 320 324 349 349 49 32 318 315 301 275 253 236 243 252 273 256 186 205 204 41 12 338 135 141 139 106 117 264 155 141 124 145 161 223 227 84 75 188 359 50 174 203 206 229 205 219 255 267 263 253
350 351 354 356 0 4 2 9 19 19 16 7 7 24 352 340 304 12 350 334 43 1 31 32 359 302 328 326 338 317 316 295 284 270 251 266 298 323 4 340 351 310 326 317 321 313 192 198 119 251 224 125 105 109 81 51 32 12 61 72 134 145 134 135 90 81 82 166 152 222 212 21 292 264 107 96 81 80 79 273 256 245 228 214 234 247 256
348 351 353 356 356 360 3 12 19 16 14 10 9 8 347 350 347 6 13 345 60 142 239 264 14 5 355 354 337 316 311 330 321 246 234 183 273 296 310 299 319 311 306 306 290 305 123 61 184 176 85 4 32 174 71 90 36 26 43 55 307 148 90 168 143 263 203 170 191 245 39 299 162 173 188 184 189 164 198 278 247 221 196 178 214 238 249
348 351 352 351 355 2 1 10 17 14 11 9 3 345 5 4 0 348 242 297 336 55 268 31 2 334 328 330 355 337 0 345 342 10 312 273 252 254 300 311 315 309 303 286 339 12 145 118 176 168 142 198 191 185 32 178 77 39 26 44 109 129 196 162 168 165 198 160 195 245 238 246 212 235 121 164 351 141 135 218 258 219 216 198 214 239 239
346 345 347 350 355 359 0 8 12 19 15 2 8 358 15 357 321 280 337 1 319 305 70 33 326 304 331 331 349 14 355 333 344 291 300 36 292 324 320 326 314 301 284 180 30 22 62 222 193 187 190 180 52 137 193 134 155 48 37 80 99 67 73 129 208 133 154 184 217 205 225 239 155 233 242 89 136 133 121 220 263 227 219 190 202 226 208
343 345 346 348 352 356 0 6 8 17 21 14 359 350 16 3 1 341 332 319 286 331 38 320 308 249 289 304 175 28 8 351 348 348 338 348 341 319 313 337 307 322 350 316 1 282 185 74 35 314 57 292 168 174 71 207 145 120 75 81 70 82 53 129 136 142 188 185 205 226 189 225 181 251 82 183 155 158 164 262 275 232 191 186 180 212 198
338 341 345 345 350 352 357 2 6 7 19 12 5 344 4 352 357 307 307 7 335 291 227 7 359 11 36 28 328 332 307 308 299 257 266 297 316 351 336 339 342 345 347 352 351 110 64 141 191 193 189 70 330 119 215 137 180 155 165 143 150 124 94 325 199 182 145 198 218 359 256 249 261 283 88 142 187 201 209 231 284 156 202 185 189 208 183
335 338 341 341 343 349 351 357 5 3 16 21 356 272 62 357 349 353 339 74 13 267 75 48 244 278 350 252 280 312 313 343 332 312 322 296 81 323 287 279 308 337 5 28 16 57 301 113 14 340 203 142 234 213 83 193 170 70 135 133 105 66 100 68 63 175 185 185 238 242 312 280 346 85 132 150 156 192 222 238 24 186 199 202 203 197 170
333 333 337 340 340 341 351 353 4 3 9 27 12 356 309 324 353 4 355 6 40 290 294 293 248 237 56 316 35 233 208 165 29 353 5 302 359 339 239 165 112 317 301 330 103 19 274 138 65 310 203 112 86 19 236 68 348 99 175 19 242 161 194 164 176 114 65 114 215 44 259 92 89 121 108 110 242 259 9 329 245 220 240 180 204 204 182
329 332 336 338 338 338 343 346 357 1 10 43 21 359 351 117 348 354 339 281 306 303 319 117 252 245 269 283 337 11 329 325 359 341 347 284 317 318 8 30 349 347 19 351 13 82 12 128 123 353 6 316 65 257 172 77 142 9 310 42 53 34 239 154 181 205 238 159 179 205 100 81 193 209 229 187 231 64 48 341 294 214 228 205 188 211 189
323 329 334 335 334 334 340 343 351 355 15 66 39 14 330 330 328 339 337 241 236 236 301 358 329 293 283 281 275 262 256 261 257 248 266 291 292 305 312 297 306 339 5 312 236 148 100 24 239 234 161 140 235 249 45 190 188 62 70 265 188 41 3 1 302 147 216 200 209 103 102 267 301 264 280 285 299 316 327 263 274 288 245 216 226 202 189
317 324 329 331 336 332 335 334 337 352 1 56 49 12 332 324 325 338 318 246 241 257 266 281 279 269 265 262 253 243 248 245 252 232 217 227 290 230 264 318 29 352 348 10 13 347 0 317 56 357 309 274 359 114 128 318 59 34 120 47 52 36 344 45 224 163 302 270 266 315 292 268 271 244 247 275 285 283 243 262 269 248 260 209 212 189 174
313 319 323 327 331 330 331 330 331 347 359 1 29 345 334 321 308 336 333 248 333 303 230 197 291 118 105 61 342 304 270 226 218 222 212 212 241 271 197 209 334 314 70 33 3 315 346 309 10 308 323 77 276 229 176 187 110 52 277 146 97 75 358 284 86 90 318 242 141 241 312 306 282 284 271 261 255 258 244 226 229 260 236 205 240 195 169
308 313 315 320 321 326 326 317 328 342 352 353 0 103 251 292 276 342 344 2 354 354 340 328 303 333 359 293 285 276 260 176 161 208 201 207 223 255 27 85 22 345 322 330 323 279 247 290 179 187 17 92 283 109 19 300 130 332 270 88 256 152 275 302 79 278 216 325 14 342 310 267 268 272 288 281 258 248 249 253 251 141 131 153 155 142 140
296 301 308 312 321 323 321 319 323 337 340 12 26 340 331 304 318 304 241 274 260 288 328 328 100 180 308 317 295 283 292 259 247 211 214 214 218 234 270 308 306 319 307 292 287 292 311 278 278 298 283 95 310 296 346 18 12 75 290 293 356 332 314 332 358 286 287 239 64 355 334 301 260 284 255 256 273 278 206 146 144 147 136 120 117 140 154
287 295 304 311 312 317 318 317 327 333 337 301 295 282 292 293 283 316 17 359 307 167 240 266 303 303 317 302 292 308 270 256 235 233 225 224 227 230 243 256 280 309 318 303 237 283 261 292 307 271 272 7 355 309 307 267 263 265 238 244 158 257 199 54 251 278 277 51 10 5 359 324 320 317 333 324 311 273 188 132 152 150 132 133 122 113 126
281 286 297 303 308 312 312 308 308 316 245 302 308 324 156 278 320 293 236 350 3 356 313 283 287 310 318 276 282 286 288 268 254 245 236 225 214 220 226 238 245 265 261 301 290 263 322 269 251 26 282 260 259 233 170 263 302 248 234 229 194 243 215 207 43 293 286 337 7 15 252 264 263 287 328 336 327 315 294 219 169 170 158 150 135 132 139
277 281 288 298 306 306 304 309 304 297 343 46 329 7 105 64 336 221 323 33 352 316 276 276 265 274 358 8 328 303 270 260 263 254 249 238 221 212 218 220 224 228 246 267 283 297 287 287 313 286 312 30 304 281 287 235 217 239 187 176 199 239 185 201 327 285 270 307 351 344 298 308 308 311 310 304 275 294 307 320 336 345 148 152 152 147 149
262 274 282 288 296 301 303 303 284 259 105 11 40 104 184 214 197 213 23 10 11 317 321 341 334 82 341 287 285 287 300 288 269 255 243 236 223 212 211 206 223 224 246 268 283 265 255 271 274 261 266 132 291 322 264 257 258 256 99 199 212 206 121 30 333 290 312 338 319 308 276 272 281 285 290 284 219 231 286 298 273 234 203 209 160 154 166
257 270 282 289 293 297 295 285 254 184 109 93 140 181 189 258 129 198 248 334 352 305 292 265 268 313 309 173 269 310 325 324 309 277 240 226 224 207 192 190 229 199 221 220 228 247 334 243 235 237 240 239 249 256 257 261 262 276 64 279 347 36 36 346 249 237 278 302 302 282 259 262 275 302 292 285 341 312 265 230 212 219 225 195 209 215 199
252 261 275 286 294 294 286 296 252 194 154 221 226 286 317 4 30 326 308 323 324 261 329 314 298 342 332 307 334 309 306 315 296 285 181 182 173 172 179 193 203 191 214 226 231 248 227 239 247 253 260 181 205 258 256 253 257 255 49 224 91 318 338 328 322 311 296 292 306 309 304 307 330 326 310 322 321 317 298 288 234 193 189 201 166 181 206
247 260 269 282 295 298 283 200 171 188 244 290 285 274 273 274 275 276 286 278 237 235 53 340 318 329 287 13 321 347 331 287 345 348 123 198 145 159 177 187 202 199 200 230 195 222 225 211 216 242 238 221 250 254 255 246 247 241 231 293 314 306 298 283 276 272 284 268 230 272 292 305 311 313 318 312 308 302 298 287 304 303 153 176 191 173 169
239 250 265 280 285 268 218 165 141 109 30 284 275 227 51 36 279 231 181 153 246 88 59 353 334 320 288 333 263 62 357 360 5 348 85 107 23 230 148 152 172 211 178 202 207 246 232 223 224 240 305 226 222 252 250 259 247 249 258 260 260 267 274 278 269 271 260 265 248 239 257 274 290 300 296 291 289 284 265 259 236 241 220 204 203 193 170
232 233 255 260 257 198 165 148 136 207 266 313 267 273 288 280 271 162 160 222 238 228 187 96 309 311 320 351 353 51 359 318 2 11 316 16 343 337 134 191 137 227 154 187 230 219 226 230 210 219 230 168 201 228 237 216 180 205 231 256 248 252 264 268 268 271 278 261 255 265 271 268 276 285 288 292 292 289 269 246 227 228 226 217 196 172 176
210 214 233 243 215 182 154 164 185 178 233 228 238 45 262 283 206 158 134 62 321 4 337 15 22 322 315 324 333 45 340 326 5 296 242 297 279 97 319 201 216 187 86 179 226 161 228 161 181 240 186 210 226 221 210 185 237 241 244 253 256 250 265 277 287 290 289 289 286 274 272 279 279 277 276 277 275 271 259 254 235 224 231 212 192 182 191
195 207 210 216 200 148 184 206 153 231 269 44 354 301 271 120 109 150 171 201 185 301 299 276 272 240 242 312 305 298 327 330 359 320 357 345 336 326 313 220 244 59 209 217 210 228 221 117 240 250 209 225 240 196 229 236 248 256 256 263 268 265 271 275 280 287 291 292 293 290 281 274 269 261 265 266 265 265 247 239 229 211 216 215 198 188 191
174 175 192 179 162 165 182 218 208 308 273 234 279 284 146 237 191 40 61 295 204 192 164 195 251 287 173 258 257 41 311 306 19 338 353 356 285 112 314 286 350 348 260 260 258 27 302 196 224 244 254 242 246 242 232 228 246 258 272 284 292 294 294 293 298 297 293 294 292 289 285 273 264 256 256 262 262 255 236 235 233 227 229 221 194 175 156
163 189 208 209 183 172 200 73 357 334 173 112 193 227 105 109 230 286 225 236 167 230 212 230 258 187 216 233 266 94 315 337 318 341 355 44 331 126 326 231 114 291 267 272 201 126 247 231 241 243 261 229 212 236 234 253 276 299 308 300 293 294 296 294 289 281 276 271 274 278 278 279 277 274 264 260 256 254 252 249 248 240 238 227 161 156 144
140 169 188 158 205 150 92 10 267 188 218 132 65 250 149 149 237 230 117 168 267 235 206 241 224 218 226 261 315 4 143 275 342 1 347 343 349 298 320 303 348 296 258 251 89 41 278 272 229 257 269 192 204 106 69 357 274 281 274 278 291 291 287 281 282 280 274 271 271 271 271 268 265 262 260 261 262 258 241 231 227 211 196 174 152 153 146
160 127 154 196 149 136 124 21 64 177 132 129 87 279 169 196 214 259 120 296 274 249 195 271 180 230 196 227 229 252 98 259 117 355 304 298 217 283 289 246 5 292 259 243 0 4 268 262 253 249 278 74 68 353 332 333 332 335 326 317 307 295 288 288 284 282 283 282 277 270 264 263 263 262 259 259 263 258 246 211 187 182 165 156 157 141 115
157 130 78 92 82 97 127 84 24 128 54 16 143 209 223 288 38 148 223 231 237 209 190 193 205 236 162 195 204 249 247 89 42 323 318 313 33 329 314 346 358 287 276 47 0 284 263 269 263 259 124 215 274 288 330 324 324 317 313 309 303 296 294 292 293 294 288 280 277 277 273 268 263 255 249 247 236 217 181 172 168 171 173 160 141 136 137
107 95 69 34 102 138 240 135 216 189 154 143 131 165 171 208 209 212 210 222 251 252 87 196 320 59 88 185 178 214 12 75 257 182 250 313 354 331 333 353 329 246 271 20 280 263 251 252 269 264 176 262 327 324 315 310 312 306 298 292 291 295 295 291 290 291 293 294 288 280 276 271 264 255 243 216 193 187 186 180 173 171 159 131 107 84 72
89 44 105 307 114 199 201 174 181 135 180 154 167 184 188 226 206 193 222 198 184 215 190 202 169 221 105 169 327 115 177 169 174 251 220 88 9 349 292 240 232 349 348 270 249 243 257 263 260 284 329 326 315 313 321 321 315 310 302 301 304 299 296 293 287 289 298 300 298 298 288 273 263 248 221 205 194 191 186 180 171 136 118 105 98 91 86
115 73 46 70 69 257 127 172 86 259 209 169 204 204 186 222 180 185 199 66 201 5 114 210 82 197 10 106 146 108 2 1 107 254 284 336 272 240 238 284 337 313 285 270 257 264 263 255 259 312 318 326 328 324 323 317 313 306 302 300 298 308 318 317 309 302 301 307 312 318 342 12 77 93 67 54 33 18 23 106 102 98 88 82 81 88 93
125 141 147 144 124 162 241 118 118 183 236 207 212 191 204 227 174 206 158 34 211 36 65 71 217 224 197 56 326 25 30 343 259 138 36 50 312 264 222 287 273 274 263 250 253 248 246 278 334 323 335 328 318 312 309 310 307 297 291 294 307 317 332 335 333 322 316 318 324 36 66 76 83 82 79 72 63 53 45 43 51 98 126 131 139 139 138
88 97 37 288 107 150 210 181 192 213 187 199 227 207 230 125 178 4 52 216 300 358 45 54 46 316 321 75 189 136 69 342 294 66 198 267 265 295 234 269 267 234 252 261 251 257 269 287 303 320 321 322 318 312 307 306 307 295 281 284 294 305 326 344 351 349 337 328 24 101 101 100 101 102 98 92 91 87 80 65 351 341 39 87 99 101 108
120 192 173 163 172 163 188 222 350 311 229 278 346 237 183 159 206 227 183 201 3 168 34 97 81 182 161 97 277 307 324 237 292 243 218 301 325 283 289 249 251 256 246 260 266 283 292 304 319 321 317 314 308 302 301 302 301 293 281 281 291 299 309 320 342 349 353 21 41 66 93 108 109 102 95 97 95 98 108 114 96 71 66 49 83 114 127
110 152 145 285 271 186 196 86 152 237 87 219 265 169 167 189 216 222 78 41 92 70 41 22 58 321 25 14 2 5 304 128 240 281 346 233 237 251 244 256 261 267 249 243 271 293 304 319 315 308 303 300 297 296 296 292 289 284 279 283 294 305 309 299 320 348 348 25 43 55 63 64 70 80 96 100 101 104 105 113 123 119 119 145 163 134 137
80 28 342 213 205 213 292 115 199 233 217 200 202 189 186 226 237 183 125 135 105 117 105 81 39 36 33 13 13 331 277 247 250 215 220 237 236 249 246 261 253 258 277 307 303 305 308 301 297 292 292 290 294 298 297 294 279 275 282 288 290 292 290 278 271 132 102 37 83 86 84 74 58 55 73 84 86 90 92 99 114 126 142 160 156 147 142
351 16 263 241 284 81 179 184 190 187 190 188 187 147 181 177 93 103 148 124 131 114 72 80 56 61 107 88 86 266 257 200 233 222 228 238 213 229 240 255 264 269 286 306 298 289 283 284 288 286 288 293 299 294 290 286 281 281 292 299 307 299 275 242 215 164 120 99 92 93 78 87 102 100 100 100 98 101 108 109 112 134 148 147 154 146 144
144 185 216 200 171 194 268 24 347 276 277 6 325 67 253 92 108 93 126 131 131 200 189 123 122 96 136 217 219 231 331 227 247 251 245 234 216 248 242 244 271 285 288 286 285 285 289 291 285 281 277 276 291 294 299 298 286 298 310 324 325 317 286 236 177 137 124 97 87 92 93 78 97 113 124 113 113 120 125 121 127 147 148 137 140 145 148